Starlink 32248

operational
NORAD ID: 61219 Int'l Des: 2024-171 Owner: SPXS Country: US Constellation: starlink
LEOCIRCULAR

关于 Starlink 32248

正在加载描述...

实时位置

正在加载3D地球...

即将过境

高度历史

Altitude vs Time

uPlot chart will show altitude changes over time

两行轨道根数

1 61219U 24171V 25304.74542078 -.00001091 00000-0 -24726-4 0 9993
2 61219 53.1604 201.5796 0001248 106.5967 253.5170 15.30184866 63531
Epoch: Oct 31, 2025 • Age: 7 hours

当前状态

高度 480.8 km
速度 7.63 km/s
星下点 52.54°N, 105.55°W
发射日期 Sep 20, 2024
运行时间 1.1 years
类型 internet

技术详情

分类 Payload
质量 730.00 kg
干质量 700.00 kg
总质量 730.00 kg
长度 0.30 m
直径 4.10 m
跨度 29.00 m
形状 Box + pan
制造商 SPXS
平台类型 Starlink V2M
阶段状态 In Orbit
所有者/国家 SPXS/US

大型星座

Loading constellations...